Station LUIT2 - 8771972 - San Luis Pass, TX Image indicating link to RSS feed of recent meteorological observations for station LUIT2


Conditions at LUIT2 as of
(4:30 pm CDT)
2130 GMT on 07/13/2024:
     

Click on the graph icon in the table below to see a time series plot of the last five days of that observation.

5-day plot - Wind Direction Wind Direction (WDIR):SSE ( 160 deg true )
5-day plot - Wind Speed Wind Speed (WSPD): 5.1 kts
5-day plot - Wind Gust Wind Gust (GST): 9.9 kts
5-day plot - Atmospheric Pressure Atmospheric Pressure (PRES):30.12 in
5-day plot - Water Temperature Water Temperature (WTMP): 87.4 °F
5-day plot - Wind Speed at 10 Meters Wind Speed at 10 meters (WSPD10M): 5.8 kts
5-day plot - Wind Speed at 20 Meters Wind Speed at 20 meters (WSPD20M): 5.8 kts
5-day plot -  Wind Speed, Wind Gust and Atmospheric Pressure Combined plot of Wind Speed, Gust, and Air Pressure
Previous observations
TIME
(CDT)
5-day plot - Wind Direction
WDIR
 
5-day plot - Wind Speed
WSPD
kts
5-day plot - Wind Gust
GST
kts
5-day plot - Wave Height
WVHT
ft
5-day plot - Dominant Wave Period
DPD
sec
5-day plot - Average Wave Period
APD
sec
5-day plot - Mean Wave Direction
MWD
 
5-day plot - Atmospheric Pressure
PRES
in
5-day plot - Pressure Tendency
PTDY
in
5-day plot - Air Temperature
ATMP
°F
5-day plot - Water Temperature
WTMP
°F
5-day plot - Dew Point
DEWP
°F
5-day plot - Salinity
SAL
psu
5-day plot - Visibility
VIS
nmi
5-day plot - Tide (above MLLW)
TIDE
ft
2024-07-13 04:24 pm S 8.0 12.0----30.12-- 87.3----
2024-07-13 04:18 pm SE 7.0 9.9----30.12- 86.2 87.3----
2024-07-13 04:12 pm SE 5.1 9.9----30.12- 87.3 87.3----
2024-07-13 04:06 pm S 7.0 8.9----30.12- 87.3 87.1----
2024-07-13 04:00 pm SE 8.0 9.9----30.12-0.05 87.1 87.1----
2024-07-13 03:54 pmSSE 6.0 8.0----30.12- 86.9 87.1----
2024-07-13 03:48 pm S 6.0 8.9----30.12- 86.7 87.1----
2024-07-13 03:42 pmSSE 7.0 9.9----30.13- 86.0 86.9----
2024-07-13 03:36 pm SE 6.0 8.9----30.13- 86.0 86.9----
2024-07-13 03:30 pm SE 6.0 8.9----30.13-- 87.1----
2024-07-13 03:24 pm SE 6.0 8.9----30.13-- 87.1----
2024-07-13 03:18 pm SE 6.0 8.9----30.13- 86.4 87.1----
2024-07-13 03:12 pmESE 7.0 9.9----30.13- 86.4 87.1----
2024-07-13 03:06 pm SE 6.0 8.9----30.14- 85.6 87.1----
2024-07-13 03:00 pmSSE 6.0 8.9----30.14-0.04- 87.1----
2024-07-13 02:54 pm SE 8.0 11.1----30.14-- 87.1----
2024-07-13 02:48 pmESE 7.0 9.9----30.14-- 86.9----
2024-07-13 02:42 pmESE 6.0 8.9----30.14-- 86.9----
2024-07-13 02:36 pm SE 5.1 9.9----30.15-- 86.9----
2024-07-13 02:30 pmESE 7.0 8.9----30.15- 86.4 86.9----
2024-07-13 02:24 pmESE 7.0 8.9----30.15- 86.4 86.9----
2024-07-13 02:18 pmESE 5.1 8.9----30.15- 85.5 86.7----
2024-07-13 02:12 pm E 6.0 7.0----30.15- 85.6 86.7----
2024-07-13 02:06 pmESE 6.0 7.0----30.16- 85.3 86.7----
2024-07-13 02:00 pm SE 6.0 8.0----30.16-0.02- 86.7----
2024-07-13 01:54 pmESE 5.1 7.0----30.16-- 86.7----
2024-07-13 01:48 pm SE 5.1 7.0----30.16- 84.9 86.7----
2024-07-13 01:42 pmESE 5.1 6.0----30.16- 84.6 86.7----
2024-07-13 01:36 pmESE 5.1 6.0----30.16- 84.2 86.7----
2024-07-13 01:30 pm E 4.1 5.1----30.17- 84.4 86.7----
2024-07-13 01:24 pm E 4.1 6.0----30.17- 84.4 86.7----
2024-07-13 01:18 pmESE 4.1 6.0----30.17- 84.4 86.7----
2024-07-13 01:12 pmESE 4.1 6.0----30.17- 84.4 86.9----
2024-07-13 01:06 pmESE 4.1 6.0----30.17- 84.2 86.9----
2024-07-13 01:00 pm E 5.1 5.1----30.17+0.00 84.6 86.9----
2024-07-13 12:54 pm E 4.1 5.1----30.17- 84.0 86.9----
2024-07-13 12:48 pm E 5.1 5.1----30.17-------
2024-07-13 12:42 pm E 4.1 6.0----30.18-------
2024-07-13 12:36 pmESE 4.1 6.0----30.18-------
2024-07-13 12:30 pmESE 4.1 6.0----30.18- 84.0 86.5----
2024-07-13 12:24 pm E 4.1 7.0----30.18- 83.7 86.4----
2024-07-13 12:18 pm E 4.1 5.1----30.18- 83.8 86.4----
2024-07-13 12:12 pm E 5.1 7.0----30.18- 83.7 86.4----
2024-07-13 12:06 pmESE 4.1 7.0----30.18- 83.7 86.4----
2024-07-13 12:00 pm-------30.18+0.02- 86.4----
2024-07-13 11:54 am-------30.18-- 86.2----
2024-07-13 11:48 amESE 5.1 6.0----30.18- 83.7 86.2----
2024-07-13 11:42 am E 4.1 8.0----30.18- 83.8 86.2----
2024-07-13 11:36 am E 5.1 6.0----30.18- 83.8 86.2----
2024-07-13 11:30 am E 4.1 7.0------ 83.3 86.2----
2024-07-13 11:24 am E 5.1 6.0------ 83.3 86.2----
2024-07-13 11:18 amESE 6.0 7.0----30.18-------
2024-07-13 11:12 am E 4.1 6.0----30.18-------
2024-07-13 11:06 am E 6.0 6.0----30.18-------
2024-07-13 11:00 am E 4.1 6.0----30.17+0.03 82.4 86.0----
2024-07-13 10:54 am E 4.1 6.0----30.17- 82.4 86.0----
2024-07-13 10:48 am E 5.1 6.0----30.17- 82.2 86.0----
2024-07-13 10:42 am E 5.1 6.0----30.17- 82.2 85.8----
2024-07-13 10:36 am E 5.1 6.0----30.17- 82.0 85.8----
2024-07-13 10:30 am E 4.1 5.1----30.17- 81.9 86.0----
2024-07-13 10:24 am E 4.1 6.0----30.17- 82.0 86.2----
2024-07-13 10:18 am E 5.1 6.0----30.17- 82.0 86.2----
2024-07-13 10:12 am E 4.1 5.1----30.17- 82.0 86.2----
2024-07-13 10:06 am E 4.1 5.1----30.17- 82.0 86.4----
2024-07-13 10:00 amENE 2.9 5.1----30.17+0.03 82.0 86.2----
2024-07-13 09:54 am E 5.1 5.1----30.17- 81.9 86.5----
2024-07-13 09:48 amENE 4.1 6.0----30.17- 81.7 87.1----
2024-07-13 09:42 amENE 5.1 5.1----30.17- 81.5 87.1----
2024-07-13 09:36 amENE 4.1 6.0----30.16- 81.5 87.1----
2024-07-13 09:30 amENE 5.1 7.0----30.16- 81.3 86.9----
2024-07-13 09:24 amENE 7.0 8.0----30.16- 81.0 86.9----
2024-07-13 09:18 am E 6.0 8.0----30.16- 80.8 86.7----
2024-07-13 09:12 am E 6.0 7.0----30.16- 80.8 86.7----
2024-07-13 09:06 am E 6.0 7.0----30.16- 80.4 86.7----
2024-07-13 09:00 amENE 5.1 7.0----30.16+0.02 80.2 86.5----
2024-07-13 08:54 amENE 6.0 8.0----30.16- 79.7 86.5----
2024-07-13 08:48 amENE 6.0 8.0----30.16- 79.5 86.5----
2024-07-13 08:42 am E 7.0 8.0----30.15- 79.5 86.4----
2024-07-13 08:36 am NE 5.1 6.0----30.15- 79.3 86.2----
2024-07-13 08:30 amNNE 5.1 6.0----30.15- 79.5 86.4----
2024-07-13 08:24 am N 5.1 7.0----30.16- 79.3 86.4----
2024-07-13 08:18 am N 5.1 7.0----30.16- 79.2 86.2----
2024-07-13 08:12 am N 6.0 7.0----30.15- 79.2 85.8----
2024-07-13 08:06 am N 6.0 7.0----30.15- 79.0 85.5----
2024-07-13 08:00 amNNE 6.0 7.0----30.15+0.04 78.8 85.5----
2024-07-13 07:54 amNNE 5.1 6.0----30.15- 78.6 85.6----
2024-07-13 07:48 am N 5.1 6.0----30.15- 78.6 85.6----
2024-07-13 07:42 am N 5.1 7.0----30.15- 78.4 85.8----
2024-07-13 07:36 am N 5.1 6.0----30.15- 78.3 85.8----
2024-07-13 07:30 amNNW 5.1 6.0----30.15- 78.1 86.2----
2024-07-13 07:24 amNNW 5.1 6.0----30.15- 77.5 86.5----
2024-07-13 07:18 am NW 4.1 5.1----30.14- 77.4 86.7----
2024-07-13 07:12 am NW 5.1 6.0----30.15- 77.0 86.7----
2024-07-13 07:06 amNNW 5.1 6.0----30.14- 77.0 86.7----
2024-07-13 07:00 am NW 4.1 6.0----30.14+0.06 77.0 86.5----
2024-07-13 06:54 am NW 5.1 7.0----30.15- 76.8 86.5----
2024-07-13 06:48 amWNW 6.0 7.0----30.15-- 86.4----
2024-07-13 06:42 am NW 5.1 6.0----30.15-- 86.2----
2024-07-13 06:36 amWNW 5.1 8.0----30.15-- 86.0----
2024-07-13 06:30 amWNW 6.0 9.9----30.15-- 86.2----
2024-07-13 06:24 amWNW 7.0 8.9----30.15-- 86.4----
2024-07-13 06:18 am W 7.0 8.9----30.15- 76.8 86.7----
2024-07-13 06:12 amWNW 8.9 11.1----30.14- 76.8 86.5----
2024-07-13 06:06 amWNW 8.9 11.1----30.14- 77.0 86.5----
2024-07-13 06:00 amWNW 8.9 11.1----30.14- 77.2 86.5----
2024-07-13 05:54 amWNW 8.0 12.0----30.14- 77.2 86.5----
2024-07-13 05:48 am W 8.9 11.1----30.14- 77.2 86.2----
2024-07-13 05:42 am W 8.0 15.0----30.13- 77.2 86.4----
2024-07-13 05:36 am W 12.0 17.1----30.13- 76.6 86.4----
2024-07-13 05:30 am NW 6.0 9.9----30.14- 77.2 86.4----
2024-07-13 05:24 am NW 7.0 11.1----30.12- 77.9 86.4----
2024-07-13 05:18 amSSW 5.1 9.9----30.12- 78.4 86.4----
2024-07-13 05:12 amNNE 1.0 5.1----30.13- 79.0 86.0----
2024-07-13 05:06 am N 4.1 6.0----30.12- 81.1 85.8----
2024-07-13 05:00 am N 6.0 7.0----30.11+0.01- 86.0----
2024-07-13 04:54 amNNW 6.0 7.0----30.10-- 86.4----
2024-07-13 04:48 amNNW 6.0 7.0----30.09-- 86.2----
2024-07-13 04:42 amNNW 6.0 7.0----30.10-- 86.2----
2024-07-13 04:36 am N 8.0 11.1----30.10-- 86.0----
2024-07-13 04:30 am N 8.0 9.9----30.09- 80.4 86.0----
2024-07-13 04:24 am N 8.9 14.0----30.09- 81.0 86.2----
2024-07-13 04:18 am N 8.9 13.0----30.10- 81.0 86.2----
2024-07-13 04:12 amNNE 5.1 6.0----30.10- 81.7 86.4----
2024-07-13 04:06 amNNE 5.1 6.0----30.09- 81.3 86.4----
2024-07-13 04:00 amNNE 4.1 6.0----30.09-0.01 80.8 86.4----
2024-07-13 03:54 am NE 5.1 6.0----30.09- 80.4 86.5----
2024-07-13 03:48 am NE 5.1 5.1----30.09- 80.6 86.5----
2024-07-13 03:42 am NE 4.1 5.1----30.09- 80.8 86.5----
2024-07-13 03:36 am NE 5.1 6.0----30.09- 80.2 86.5----
2024-07-13 03:30 am NE 7.0 9.9----30.09- 80.1 86.5----
2024-07-13 03:24 am NE 8.9 11.1----30.10- 79.9 86.5----
2024-07-13 03:18 am NE 9.9 12.0----30.09- 79.3 86.5----
2024-07-13 03:12 amENE 9.9 17.1----30.09- 79.0 86.5----
2024-07-13 03:06 am E 15.0 18.1----30.09- 79.7 86.5----
2024-07-13 03:00 am E 15.9 22.0------ 79.3 86.7----
2024-07-13 02:54 amESE 13.0 19.0------ 79.9 86.9----
2024-07-13 02:48 amSSE 2.9 4.1----30.09- 80.4 86.7----
2024-07-13 02:42 amSSE 2.9 5.1----30.08- 83.7 86.7----
2024-07-13 02:36 am S 2.9 6.0----30.08- 83.8 86.9----
2024-07-13 02:30 amSSE 2.9 5.1----30.08- 83.7 86.9----
2024-07-13 02:24 amSSE 2.9 5.1----30.08- 83.7 86.9----
2024-07-13 02:18 am S 4.1 6.0----30.09- 83.7 86.9----
2024-07-13 02:12 am S 5.1 7.0----30.09- 83.8 86.9----
2024-07-13 02:06 amSSE 6.0 8.9----30.09- 84.0 86.9----
2024-07-13 02:00 amSSE 6.0 9.9----30.09+0.00 84.2 86.9----
2024-07-13 01:54 amSSE 6.0 8.0----30.09- 84.4 86.9----
2024-07-13 01:48 amSSE 6.0 9.9----30.10- 84.4 86.9----
2024-07-13 01:42 amSSE 7.0 12.0----30.09- 84.4 86.9----
2024-07-13 01:36 amSSE 8.9 12.0----30.10- 84.4 86.9----
2024-07-13 01:30 amSSE 7.0 11.1----30.10- 84.6 87.1----
2024-07-13 01:24 amSSE 4.1 8.9----30.10- 84.4 87.1----
2024-07-13 01:18 amSSE 5.1 8.0----30.10- 84.6 87.1----
2024-07-13 01:12 amSSE 6.0 12.0----30.10- 84.6 86.9----
2024-07-13 01:06 am S 7.0 11.1----30.10- 84.9 86.9----
2024-07-13 01:00 am S 8.9 13.0----30.10+0.03 84.0 86.9----
2024-07-13 12:54 am S 9.9 12.0----30.10- 83.8 87.1----
2024-07-13 12:48 amSSE 8.0 11.1----30.10- 84.6 87.1----
2024-07-13 12:42 amSSE 5.1 8.0----30.10- 85.1 87.1----
2024-07-13 12:36 amSSE 6.0 9.9----30.10- 84.4 87.1----
2024-07-13 12:30 amSSE 8.9 14.0----30.10- 84.2 87.1----
2024-07-13 12:24 am SE 6.0 8.9----30.10- 84.6 87.1----
2024-07-13 12:18 amSSE 7.0 8.9----30.10- 84.9 87.3----
2024-07-13 12:12 am SE 8.0 11.1----30.10- 84.9 87.3----
2024-07-13 12:06 am SE 7.0 8.9----30.10- 85.1 87.1----
2024-07-13 12:00 am SE 4.1 8.9----30.10+0.04 84.9 86.9----
2024-07-12 11:54 pmSSE 7.0 8.9----30.11- 84.7 86.9----
2024-07-12 11:48 pmSSE 6.0 8.0----30.10- 84.9 86.9----
2024-07-12 11:42 pmSSE 5.1 8.0----30.10- 84.7 87.1----
2024-07-12 11:36 pmSSE 5.1 8.0----30.10- 84.9 87.1----
2024-07-12 11:30 pmSSE 6.0 9.9----30.10- 84.9 87.1----
2024-07-12 11:24 pmSSE 6.0 8.9----30.10- 84.9 87.1----
2024-07-12 11:18 pm SE 7.0 9.9----30.10- 84.9 86.9----
2024-07-12 11:12 pmSSE 5.1 9.9----30.09- 84.9 86.7----
2024-07-12 11:06 pm SE 7.0 9.9----30.09- 84.7 86.5----
2024-07-12 11:00 pmSSE 5.1 8.9----30.09+0.04 84.7 86.4----
2024-07-12 10:54 pm SE 6.0 8.9----30.09- 84.7 86.7----
2024-07-12 10:48 pmSSE 4.1 8.0----30.09- 84.6 87.1----
2024-07-12 10:42 pm SE 6.0 8.0----30.09- 84.4 87.1----
2024-07-12 10:36 pmSSE 6.0 8.0----30.09- 84.6 87.1----
2024-07-12 10:30 pm SE 5.1 7.0----30.09- 84.6 86.9----
2024-07-12 10:24 pm SE 6.0 8.9----30.08- 84.4 86.9----
2024-07-12 10:18 pm SE 5.1 8.0----30.08- 84.2 87.1----
2024-07-12 10:12 pm SE 6.0 7.0----30.08- 84.0 86.9----
2024-07-12 10:06 pmESE 6.0 7.0----30.07- 84.2 86.9----
2024-07-12 10:00 pm SE 6.0 8.0----30.07+0.00 84.2 87.1----
2024-07-12 09:54 pm SE 6.0 8.0----30.07- 84.2 86.7----
2024-07-12 09:48 pmESE 5.1 7.0----30.07- 84.2 86.4----
2024-07-12 09:42 pm SE 5.1 7.0----30.07- 84.2 86.4----
2024-07-12 09:36 pm SE 5.1 7.0----30.07- 83.8 86.4----
2024-07-12 09:30 pm SE 5.1 7.0----30.06- 83.8 86.4----
2024-07-12 09:24 pmESE 6.0 7.0----30.06- 83.8 86.4----
2024-07-12 09:18 pmESE 6.0 7.0----30.06- 84.4 86.4----
2024-07-12 09:12 pmESE 5.1 7.0----30.06- 84.4 86.5----
2024-07-12 09:06 pmESE 6.0 8.0----30.06- 84.0 86.5----
2024-07-12 09:00 pm E 6.0 8.9----30.06+0.00 84.2 86.5----
2024-07-12 08:54 pmESE 7.0 8.9----30.06- 84.4 86.5----
2024-07-12 08:48 pmESE 6.0 7.0----30.06- 84.2 86.5----
2024-07-12 08:42 pmESE 5.1 6.0----30.06- 84.0 86.5----
2024-07-12 08:36 pm E 4.1 5.1----30.06- 84.0 86.7----
2024-07-12 08:30 pm E 4.1 5.1----30.06- 84.0 86.7----
2024-07-12 08:24 pm E 2.9 5.1----30.06- 84.0 86.7----
2024-07-12 08:18 pm E 5.1 6.0----30.06- 84.0 86.7----
2024-07-12 08:12 pm E 5.1 6.0----30.06- 83.8 86.7----
2024-07-12 08:06 pm E 5.1 6.0----30.06- 84.0 86.9----
2024-07-12 08:00 pmENE 2.9 5.1----30.06-0.01 84.0 86.9----
2024-07-12 07:54 pmENE 4.1 5.1----30.06- 84.0 86.9----
2024-07-12 07:48 pm E 1.9 4.1----30.06- 84.0 86.9----
2024-07-12 07:42 pm E 4.1 5.1----30.06- 83.8 86.9----
2024-07-12 07:36 pmENE 4.1 5.1----30.06- 83.8 86.9----
2024-07-12 07:30 pm E 5.1 7.0----30.06- 83.8 86.9----
2024-07-12 07:24 pmENE 4.1 5.1----30.06- 83.8 87.1----
2024-07-12 07:18 pmENE 2.9 4.1----30.06- 83.8 87.1----
2024-07-12 07:12 pmENE 4.1 5.1----30.06- 83.8 87.1----
2024-07-12 07:06 pmENE 1.9 4.1----30.06- 83.7 87.1----
2024-07-12 07:00 pmENE 4.1 4.1----30.06+0.00 83.5 87.1----
2024-07-12 06:54 pm NE 4.1 5.1----30.06- 83.5 87.1----
2024-07-12 06:48 pmENE 2.9 4.1----30.06- 83.5 87.1----
2024-07-12 06:42 pmNNE 1.9 4.1----30.06- 83.5 87.1----
2024-07-12 06:36 pm N 2.9 4.1----30.06- 83.5 87.1----
2024-07-12 06:30 pm N 2.9 4.1----30.06- 83.3 87.1----
2024-07-12 06:24 pm N 2.9 4.1----30.06- 83.1 87.1----
2024-07-12 06:18 pmNNE 2.9 4.1----30.06- 83.3 87.1----
2024-07-12 06:12 pmNNE 1.9 2.9----30.06- 83.8 87.1----
2024-07-12 06:06 pm N 2.9 4.1----30.06- 84.2 87.1----
2024-07-12 06:00 pm N 1.9 2.9----30.06-0.02 83.5 87.1----
2024-07-12 05:54 pm N 1.9 5.1----30.06- 82.9 87.1----
2024-07-12 05:48 pm N 5.1 6.0----30.06-- 86.9----
2024-07-12 05:42 pmNNW 5.1 5.1----30.06-- 86.9----
2024-07-12 05:36 pm N 4.1 5.1----30.06-- 87.1----
2024-07-12 05:30 pm N 4.1 5.1----30.06- 82.0 87.1----
2024-07-12 05:24 pmNNW 4.1 5.1----30.07- 82.2 87.3----
2024-07-12 05:18 pm N 2.9 4.1----30.07-- 87.3----
2024-07-12 05:12 pm N 4.1 5.1----30.07-- 87.3----
2024-07-12 05:06 pmNNW 4.1 5.1----30.06-- 87.3----
2024-07-12 05:00 pm NW 5.1 6.0----30.06-0.01 82.4 87.3----
2024-07-12 04:54 pm N 2.9 4.1----30.06- 82.8 87.4----